User: anonymous   Login
Location: Darlington Observatory
(36.4817°N, 105.8156°W)
Time: 18:50:33
(UTC-06:00)
Language:

NOSS 3-3 (A) - Orbit

View from above orbital plane
View from above orbital plane
View from above satellite
View from above satellite

Ground track
Ground track

The orbit data is extracted from the following two-line orbital elements,

1 28537U 05004A   17199.88692745 0.00000000  00000-0  00000-0 0    03
2 28537  63.4244 107.6463 0265000 357.3935   2.6064 13.40734725    09
Epoch (UTC): 18 July 2017 21:17:10
Eccentricity: 0.0265000
inclination: 63.4244°
perigee height: 908 km
apogee height: 1305 km
right ascension of ascending node: 107.6463°
argument of perigee: 357.3935°
revolutions per day: 13.40734725
mean anomaly at epoch: 2.6064°
orbit number at epoch: 0

The dashed part of the orbit path shows where the satellite is in the earth's shadow,  

DLR